Location: Austin
(30.3000°N, 97.7500°W)
Time: 11:01:19
(UTC-05:00)

USA 306 - Pass Details

Date: 26 May 2023
Orbit: 496 x 519 km, 54.0° (Epoch: 15 February)

Event Time Altitude Azimuth Distance (km) Brightness Sun altitude
Rises 21:57:20 0° 303° (WNW) 2,573 8.0 -17.8°
Reaches altitude 10° 21:59:51 10° 288° (WNW) 1,684 6.4 -18.2°
Maximum altitude 22:02:51 22° 236° (WSW) 1,104 4.5 -18.7°
Enters shadow 22:04:22 17° 203° (SSW) 1,273 4.5 -18.9°
